PBO Station Position Time Series. Reference Frame : NAM14
Format Version,1.1.1
4-character ID,LMCN
Station name,Lumcon_LA2003
Begin Date, 2003-04-24
End Date, 2023-06-26
Release Date, 2023-06-27
Reference position, 29.2549785809 North Latitude, -90.6612997848 East Longitude, -16.14565 meters elevation,
Date, North (mm), East (mm), Vertical (mm), North Std. Deviation (mm), East Std. Deviation (mm),              Vertical Std. Deviation (mm), Quality,
2003-04-24,0.00, 0.00, 0.00, 1.80, 1.78, 7.75, repro,
2003-04-25,-1.04, -0.55, -2.51, 1.83, 1.80, 8.03, repro,
2003-04-26,0.08, 0.70, -3.50, 1.78, 1.78, 7.88, repro,
2003-04-27,-0.14, -1.21, -7.62, 1.77, 1.75, 7.66, repro,
2003-04-28,0.32, 0.82, -9.64, 1.81, 1.79, 7.96, repro,
2003-04-29,0.02, 0.29, -6.45, 1.85, 1.83, 7.94, repro,
2003-04-30,-0.48, 0.22, -8.25, 1.82, 1.87, 8.12, repro,
2003-05-01,0.18, 1.54, -9.02, 1.81, 1.86, 8.07, repro,
2003-05-02,0.02, 2.68, -9.79, 1.81, 1.82, 7.83, repro,
2003-05-03,-0.20, 1.44, -9.50, 1.84, 1.83, 7.92, repro,
2003-05-04,0.50, 3.33, 4.79, 1.87, 1.86, 7.96, repro,
2003-05-05,1.01, 2.58, -8.21, 1.84, 1.82, 7.90, repro,
2003-05-06,1.02, 2.07, -8.76, 1.86, 1.86, 7.96, repro,
2003-05-07,2.16, 1.99, -4.40, 1.91, 1.94, 8.06, repro,
2003-05-08,0.44, 3.08, -10.41, 1.88, 1.84, 7.98, repro,
2003-05-09,0.21, 2.98, -6.51, 1.98, 1.91, 8.42, repro,
2003-05-10,0.90, 3.00, -3.87, 1.81, 1.79, 7.82, repro,
2003-05-11,1.55, 1.95, -2.01, 1.79, 1.78, 7.67, repro,
2003-05-12,2.45, 1.53, -7.53, 1.86, 1.85, 8.12, repro,
2003-05-13,1.24, 1.79, -8.31, 1.87, 1.90, 7.97, repro,
2003-05-14,0.52, 1.43, -8.68, 1.87, 1.88, 8.05, repro,
2003-05-15,-1.25, 1.15, -11.25, 1.93, 1.97, 8.37, repro,
2003-05-16,-0.25, 2.69, -7.17, 1.79, 1.81, 7.77, repro,
2003-05-17,0.32, 1.91, -9.91, 1.84, 1.82, 8.00, repro,
2003-05-18,2.75, 1.19, -7.87, 1.87, 1.87, 8.11, repro,
2003-05-19,-4.20, -0.48, -16.15, 2.19, 2.20, 9.48, repro,
2003-05-20,-0.66, 3.42, -2.90, 2.05, 1.98, 8.98, repro,
2003-05-21,1.16, 1.57, -8.53, 1.92, 1.90, 8.17, repro,
2003-05-22,1.09, 1.45, -14.48, 1.82, 1.81, 7.91, repro,
2003-05-23,-0.78, 0.15, -10.02, 1.83, 1.81, 7.86, repro,
2003-05-24,0.32, 0.89, -11.95, 1.88, 1.86, 7.92, repro,
2003-05-25,1.59, 2.28, 0.15, 1.78, 1.75, 7.73, repro,
2003-05-26,-0.44, 3.42, -13.37, 1.79, 1.79, 7.85, repro,
2003-05-27,1.06, 2.54, -7.45, 1.95, 1.95, 8.37, repro,
2003-05-28,1.10, -0.14, -12.52, 1.92, 1.88, 8.37, repro,
2003-05-29,0.69, -0.10, -7.05, 1.80, 1.84, 7.92, repro,
2003-05-30,-1.24, 1.02, 3.46, 1.81, 1.82, 7.90, repro,
2003-05-31,0.70, 1.13, -3.48, 1.77, 1.77, 7.69, repro,
2003-06-01,1.77, 1.42, -5.58, 1.77, 1.78, 7.70, repro,
2003-06-02,-0.55, 1.59, -7.60, 1.92, 2.03, 8.34, repro,
2003-06-03,1.12, 3.93, 11.59, 2.16, 2.10, 9.45, repro,
2003-06-04,-0.55, 3.29, -2.03, 1.88, 1.90, 8.27, repro,
2003-06-05,-1.86, -0.66, -1.05, 1.95, 2.02, 8.78, repro,
2003-06-06,-0.89, -1.65, -10.16, 1.97, 1.98, 8.76, repro,
2003-06-07,1.03, 1.64, -5.46, 1.88, 2.04, 8.44, repro,
2003-06-08,2.05, 2.77, 5.25, 1.91, 1.84, 8.47, repro,
2003-06-09,1.21, 2.86, -10.16, 1.78, 1.77, 7.77, repro,
2003-06-10,0.97, 3.48, -7.79, 1.81, 1.81, 7.83, repro,
2003-06-11,1.01, 2.17, -0.27, 1.83, 1.83, 8.13, repro,
2003-06-12,0.67, 3.61, -6.99, 1.78, 1.80, 7.82, repro,
2003-06-13,0.72, 3.77, -11.84, 1.93, 1.94, 8.51, repro,
2003-06-14,1.53, 2.84, -3.18, 1.81, 1.80, 7.93, repro,
2003-06-15,2.09, 3.14, -2.88, 1.93, 1.95, 8.38, repro,
2003-06-16,0.81, 1.61, -13.21, 1.92, 1.84, 8.22, repro,
2003-06-17,0.90, 2.55, -5.61, 2.09, 2.12, 8.71, repro,
2003-06-18,0.77, 2.13, -5.44, 1.84, 1.78, 8.00, repro,
2003-06-19,2.43, 1.39, -5.94, 1.91, 1.99, 8.45, repro,
2003-06-20,0.88, 3.65, -8.45, 2.01, 2.11, 9.13, repro,
2003-06-21,-1.68, 2.20, -8.75, 2.03, 2.03, 8.94, repro,
2003-06-22,0.99, 1.98, -9.50, 2.09, 2.17, 8.93, repro,
2003-06-23,-0.15, 1.62, -4.46, 1.87, 1.84, 8.07, repro,
2003-06-24,-2.05, -2.10, -14.38, 2.08, 2.03, 9.09, repro,
2003-06-25,1.82, -2.48, -3.75, 1.92, 1.94, 8.44, repro,
2003-06-26,0.54, 4.44, -7.24, 1.96, 1.97, 8.53, repro,
2003-06-27,0.72, -3.19, -5.21, 1.84, 1.84, 7.95, repro,
2003-06-28,1.22, 1.93, -11.05, 1.97, 2.10, 9.04, repro,
2003-06-29,-3.38, 2.41, -2.22, 1.94, 1.96, 8.48, repro,
2003-06-30,-1.59, 1.72, -19.79, 2.00, 1.96, 8.67, repro,
2003-07-01,0.03, 0.77, -3.96, 1.86, 1.89, 8.14, repro,
2003-07-02,-1.02, 3.34, -16.29, 2.05, 2.15, 9.12, repro,
2003-07-03,2.52, 1.55, -7.97, 2.08, 2.17, 9.22, repro,
2003-07-04,0.52, -0.03, -1.06, 1.85, 1.81, 8.17, repro,
2003-07-05,0.01, 0.65, -12.02, 1.79, 1.76, 7.77, repro,
2003-07-06,1.10, 0.29, -13.51, 1.80, 1.78, 7.95, repro,
2003-07-07,1.63, 4.30, -2.43, 2.02, 2.05, 8.92, repro,
2003-07-08,1.94, 0.50, -18.62, 1.86, 1.87, 8.17, repro,
2003-07-09,-0.30, 2.69, -8.39, 1.85, 1.87, 7.98, repro,
2003-07-10,1.13, 3.50, -13.32, 1.83, 1.84, 7.96, repro,
2003-07-11,1.84, 0.48, -11.10, 1.96, 1.99, 8.65, repro,
2003-07-12,4.37, 0.66, 5.64, 1.88, 1.88, 8.25, repro,
2003-07-13,3.08, 2.71, 0.02, 2.00, 2.06, 8.58, repro,
2003-07-14,-1.64, 1.14, -10.17, 1.86, 1.86, 8.10, repro,
2003-07-15,-0.01, 1.43, -1.18, 1.99, 1.99, 8.64, repro,
2003-07-16,0.51, 3.96, -12.84, 1.87, 1.89, 8.08, repro,
2003-07-17,2.65, 2.83, -8.84, 1.92, 1.96, 8.60, repro,
2003-07-18,1.62, 1.86, -16.46, 1.83, 1.85, 8.01, repro,
2003-07-19,1.57, 3.40, -8.41, 1.84, 1.83, 7.98, repro,
2003-07-20,1.40, 2.86, -13.95, 1.99, 2.15, 8.68, repro,
2003-07-21,1.96, 2.91, -3.93, 1.97, 2.02, 8.63, repro,
2003-07-22,1.26, 0.63, -6.54, 2.19, 2.46, 10.81, repro,
2003-07-23,1.88, 4.15, -1.13, 1.93, 1.91, 8.57, repro,
2003-07-24,1.80, 0.10, -5.22, 1.93, 1.93, 8.50, repro,
2003-07-25,-0.65, 2.92, -13.44, 2.05, 2.02, 9.03, repro,
2003-07-26,-1.43, 3.75, -11.85, 1.92, 1.93, 8.28, repro,
2003-07-27,-2.53, 0.10, -11.50, 1.89, 1.89, 8.30, repro,
2003-07-28,1.94, 2.25, -6.93, 1.90, 1.88, 8.22, repro,
2003-07-29,2.45, 3.18, 0.58, 1.85, 1.85, 8.10, repro,
2003-07-30,1.62, 4.61, -4.67, 1.94, 1.94, 8.38, repro,
2003-07-31,3.02, 4.25, -12.12, 1.94, 1.93, 8.20, repro,
2003-08-01,2.89, 1.08, -10.03, 2.01, 2.03, 8.80, repro,
2003-08-02,-0.81, 0.93, -3.93, 2.11, 2.30, 9.43, repro,
2003-08-03,4.39, 1.62, -14.14, 2.00, 2.01, 8.74, repro,
2003-08-04,1.70, 1.91, -8.92, 1.89, 1.87, 8.29, repro,
2003-08-05,0.13, 1.98, -6.93, 1.81, 1.77, 7.79, repro,
2003-08-06,1.35, 3.45, -4.42, 1.97, 2.00, 8.93, repro,
2003-08-07,0.32, 5.56, -6.70, 1.82, 1.79, 7.93, repro,
2003-08-08,0.71, 3.74, -16.31, 1.87, 1.87, 8.12, repro,
2003-08-09,-1.21, 2.85, -6.25, 2.26, 2.28, 9.86, repro,
2003-08-10,0.68, -0.12, -5.87, 1.81, 1.78, 7.86, repro,
2003-08-11,-1.44, 4.26, -3.77, 1.91, 1.97, 8.33, repro,
2003-08-12,-1.32, 3.04, 0.05, 2.03, 2.01, 8.87, repro,
2003-08-13,-0.60, -0.79, -12.12, 1.86, 1.92, 8.17, repro,
2003-08-14,0.30, -0.97, -18.68, 1.80, 1.78, 7.84, repro,
2003-08-15,0.87, -0.14, -9.59, 2.03, 2.04, 8.80, repro,
2003-08-16,-0.24, 1.98, -10.78, 1.84, 1.81, 8.02, repro,
2003-08-17,-0.93, 1.52, -0.26, 2.03, 2.10, 9.09, repro,
2003-08-18,1.53, 1.45, -12.75, 1.80, 1.77, 7.76, repro,
2003-08-19,4.84, 1.67, 1.37, 1.86, 1.92, 8.24, repro,
2003-08-20,0.73, 1.05, -17.61, 2.10, 2.20, 9.25, repro,
2003-08-21,-1.30, 0.41, -12.56, 1.83, 1.83, 7.91, repro,
2003-08-22,3.07, 2.33, -8.43, 1.77, 1.74, 7.58, repro,
2003-08-23,1.28, -1.17, -11.66, 1.80, 1.82, 7.82, repro,
2003-08-24,1.59, -0.54, -18.63, 1.91, 1.88, 8.30, repro,
2003-08-25,2.91, 3.47, -11.86, 1.85, 1.86, 8.20, repro,
2003-08-26,2.25, 0.63, -19.29, 1.88, 1.86, 8.27, repro,
2003-08-27,3.16, 1.81, -9.77, 1.80, 1.78, 7.80, repro,
2003-08-28,0.40, 0.29, -12.97, 1.82, 1.80, 7.82, repro,
2003-08-29,-0.01, 0.49, -16.80, 1.89, 1.85, 8.06, repro,
2003-08-30,0.40, 1.66, -19.17, 1.91, 1.87, 8.42, repro,
2003-08-31,-0.29, 3.93, -18.07, 1.86, 1.94, 8.34, repro,
2003-09-01,0.87, 1.58, -10.26, 1.85, 1.84, 8.04, repro,
2003-09-02,0.42, 1.42, -15.62, 1.83, 1.85, 8.03, repro,
2003-09-03,0.64, 4.38, -15.60, 1.88, 1.98, 8.36, repro,
2003-09-04,0.71, 4.13, -15.69, 1.89, 1.83, 8.13, repro,
2003-09-05,2.35, 1.54, -2.75, 1.93, 1.91, 8.19, repro,
2003-09-06,-0.00, 0.24, -6.32, 1.86, 1.81, 8.19, repro,
2003-09-07,0.04, 1.35, -10.87, 1.82, 1.85, 7.88, repro,
2003-09-08,0.85, -0.38, -14.52, 1.88, 1.89, 8.11, repro,
2003-09-09,1.10, 3.12, 3.46, 1.89, 1.92, 8.28, repro,
2003-09-10,1.18, 0.02, -8.86, 1.89, 1.87, 8.35, repro,
2003-09-11,-2.17, 1.20, 11.04, 1.87, 1.88, 8.23, repro,
2003-09-12,0.82, 1.58, 4.22, 2.03, 1.99, 8.79, repro,
2003-09-13,0.79, 1.89, -9.44, 1.86, 1.79, 8.14, repro,
2003-09-14,-0.62, 2.50, -11.12, 1.94, 1.99, 8.44, repro,
2003-09-15,1.76, 3.54, 0.26, 2.04, 2.03, 8.82, repro,
2003-09-16,0.55, 1.01, -7.22, 1.87, 1.86, 8.26, repro,
2003-09-17,-0.50, 1.22, -6.88, 1.82, 1.85, 7.93, repro,
2003-09-18,0.72, 2.23, -7.62, 1.82, 1.78, 7.97, repro,
2003-09-19,0.06, 1.99, -3.31, 1.87, 1.85, 8.24, repro,
2003-09-20,-0.29, 0.44, -5.49, 1.92, 1.81, 8.14, repro,
2003-09-21,0.35, 0.23, 0.82, 2.23, 2.19, 9.98, repro,
2003-09-22,0.50, -0.10, -6.61, 1.92, 1.92, 8.47, repro,
2003-09-23,0.97, -0.03, -10.36, 1.95, 1.99, 8.66, repro,
2003-09-24,0.43, -0.86, -5.39, 1.91, 1.87, 8.36, repro,
2003-09-25,-0.12, 1.70, -7.50, 2.09, 2.04, 9.12, repro,
2003-09-26,-2.00, 0.60, 2.31, 2.04, 1.95, 9.08, repro,
2003-09-27,-1.02, -0.54, -20.65, 1.93, 1.91, 8.61, repro,
2003-09-28,0.96, 0.22, -17.60, 1.90, 1.94, 8.29, repro,
2003-09-29,-0.63, 0.30, -8.84, 2.07, 2.07, 8.99, repro,
2003-09-30,-2.27, -2.29, -14.52, 1.99, 1.90, 8.66, repro,
2003-10-01,-1.97, -1.12, -12.37, 1.91, 1.83, 8.23, repro,
2003-10-02,-3.67, -3.14, -12.64, 1.94, 1.99, 8.75, repro,
2003-10-03,-2.44, -2.72, -10.77, 1.83, 1.81, 7.95, repro,
2003-10-04,-0.99, -0.25, -11.13, 1.98, 1.91, 8.70, repro,
2003-10-05,-1.92, 0.08, -5.89, 1.86, 1.88, 8.22, repro,
2003-10-06,-1.63, -0.62, -11.95, 1.94, 1.88, 8.41, repro,
2003-10-07,-2.15, -0.48, -4.53, 1.87, 1.88, 8.39, repro,
2003-10-08,-1.10, 0.15, -10.35, 1.95, 1.96, 8.76, repro,
2003-10-09,-0.40, 0.82, -8.20, 1.84, 1.80, 8.11, repro,
2003-10-10,-1.60, -1.14, 5.81, 1.97, 1.92, 8.81, repro,
2003-10-11,-1.54, -0.91, -16.67, 1.94, 1.89, 8.61, repro,
2003-10-12,-1.22, -2.15, -11.38, 1.94, 1.98, 8.50, repro,
2003-10-13,-0.41, 0.06, -15.75, 1.97, 1.90, 8.62, repro,
2003-10-14,-1.28, -0.32, -6.75, 1.85, 1.80, 8.11, repro,
2003-10-15,-1.99, -0.35, -7.11, 1.90, 1.83, 8.31, repro,
2003-10-16,-1.37, -1.50, -16.65, 1.83, 1.75, 7.93, repro,
2003-10-17,-2.33, -1.54, -6.12, 1.82, 1.80, 7.90, repro,
2003-10-18,-0.39, -2.44, -9.99, 2.01, 2.00, 8.77, repro,
2003-10-19,-2.60, -1.60, -15.15, 1.85, 1.79, 8.10, repro,
2003-10-20,-1.36, -2.41, -15.94, 1.88, 1.80, 8.18, repro,
2003-10-21,-0.95, -1.01, -16.72, 1.81, 1.77, 7.79, repro,
2003-10-22,-2.13, -2.05, -17.70, 1.91, 1.89, 8.09, repro,
2003-10-23,-2.40, -1.92, -16.71, 1.82, 1.77, 7.82, repro,
2003-10-24,-1.09, -0.06, -11.33, 1.91, 1.87, 8.39, repro,
2003-10-25,-0.75, -2.95, -8.44, 1.95, 1.92, 8.22, repro,
2003-10-26,-2.74, -0.42, -10.67, 2.02, 1.94, 8.80, repro,
2003-10-27,-2.62, -2.68, -14.36, 1.82, 1.81, 7.76, repro,
2003-10-28,-2.68, -2.96, -10.53, 1.87, 1.86, 8.01, repro,
2003-10-29,-3.33, -3.50, -14.48, 2.05, 2.01, 8.70, repro,
2003-10-30,-3.27, -2.14, -11.62, 2.20, 2.21, 9.45, repro,
2003-10-31,-1.21, -2.05, -20.61, 1.90, 1.91, 8.10, repro,
2003-11-01,-1.32, -1.89, -21.29, 1.78, 1.74, 7.63, repro,
2003-11-02,-1.57, -2.81, -22.20, 1.84, 1.80, 7.86, repro,
2003-11-03,-2.02, -3.86, -17.12, 1.82, 1.79, 7.77, repro,
2003-11-04,-1.68, -1.95, -17.10, 1.84, 1.85, 7.89, repro,
2003-11-05,-0.99, -0.58, -22.11, 1.83, 1.81, 7.79, repro,
2003-11-06,-1.14, -0.83, -18.63, 1.79, 1.74, 7.62, repro,
2003-11-07,-1.65, -1.15, -19.40, 1.88, 1.88, 7.89, repro,
2003-11-08,-1.90, -2.79, -26.67, 1.92, 1.93, 8.03, repro,
2003-11-09,-0.32, -2.70, -18.40, 1.84, 1.80, 7.92, repro,
2003-11-10,-1.21, -3.55, -21.55, 1.86, 1.87, 7.99, repro,
2003-11-11,-1.76, -2.12, -16.56, 1.87, 1.86, 7.95, repro,
2003-11-12,-0.61, -2.29, -15.51, 1.83, 1.80, 7.80, repro,
2003-11-13,-0.27, -2.68, -15.82, 1.88, 1.89, 8.16, repro,
2003-11-14,-1.40, -3.48, -12.27, 2.01, 1.94, 8.79, repro,
2003-11-15,-1.67, -3.76, -19.24, 1.83, 1.79, 7.89, repro,
2003-11-16,-1.14, -2.34, -6.68, 1.96, 1.97, 8.21, repro,
2003-11-17,-2.24, -2.49, -18.79, 1.91, 2.00, 8.50, repro,
2003-11-18,0.14, -2.40, -27.03, 1.92, 1.99, 8.52, repro,
2003-11-19,-0.62, -5.84, -11.78, 1.82, 1.79, 7.77, repro,
2003-11-20,-1.68, -5.53, -7.80, 1.91, 1.87, 8.30, repro,
2003-11-21,-2.33, -4.88, -17.44, 2.00, 1.99, 8.40, repro,
2003-11-22,-2.21, -5.09, -13.94, 1.92, 1.87, 8.15, repro,
2003-11-23,-1.69, -2.16, -17.53, 1.92, 1.86, 8.11, repro,
2003-11-24,-0.14, -6.56, -11.30, 1.86, 1.90, 8.24, repro,
2003-11-25,-3.07, -6.95, -10.49, 1.96, 2.00, 8.45, repro,
2003-11-26,-3.25, -6.78, -14.57, 1.78, 1.77, 7.77, repro,
2003-11-27,-3.93, -6.84, -28.04, 1.97, 2.09, 8.56, repro,
2003-11-28,-2.48, -6.20, -27.56, 1.82, 1.81, 7.84, repro,
2003-11-29,-3.59, -7.87, -21.87, 1.90, 1.85, 8.04, repro,
2003-11-30,-3.46, -7.59, -21.97, 1.82, 1.81, 7.84, repro,
2003-12-01,-3.62, -6.92, -26.16, 1.83, 1.79, 7.86, repro,
2003-12-02,-2.98, -5.06, -21.93, 1.91, 1.89, 8.14, repro,
2003-12-03,-2.96, -6.43, -25.26, 1.98, 1.96, 8.57, repro,
2003-12-04,-2.49, -4.09, -21.81, 1.90, 1.86, 8.07, repro,
2003-12-05,-2.29, -5.55, -22.37, 1.81, 1.78, 7.85, repro,
2003-12-06,-2.43, -7.90, -16.44, 1.82, 1.81, 7.86, repro,
2003-12-07,-0.66, -10.42, -22.44, 5.48, 5.56, 23.67, repro,
2003-12-08,-5.11, -7.03, -16.88, 1.89, 1.84, 7.95, repro,
2003-12-09,-3.91, -5.90, -20.16, 1.79, 1.78, 7.70, repro,
2003-12-10,-2.87, -6.83, -14.20, 1.83, 1.82, 7.77, repro,
2003-12-11,-4.34, -6.66, -12.69, 1.98, 2.05, 8.36, repro,
2003-12-12,-3.11, -6.77, -21.54, 1.84, 1.81, 7.85, repro,
2003-12-13,-4.56, -6.72, -20.65, 1.93, 1.88, 8.38, repro,
2003-12-14,-3.45, -7.78, -18.58, 1.94, 1.96, 8.19, repro,
2003-12-15,-5.23, -7.48, -19.10, 1.86, 1.82, 7.81, repro,
2003-12-16,-3.46, -5.99, -16.94, 1.85, 1.87, 7.94, repro,
2003-12-17,-3.72, -7.71, -17.61, 1.95, 2.02, 8.39, repro,
2003-12-18,-3.98, -8.05, -28.44, 1.92, 1.84, 8.00, repro,
2003-12-19,-3.42, -7.96, -19.78, 1.98, 1.99, 8.41, repro,
2003-12-20,-3.36, -8.13, -20.91, 2.00, 1.95, 8.51, repro,
2003-12-21,-3.20, -7.58, -23.23, 1.93, 1.90, 8.25, repro,
2003-12-22,-3.23, -7.09, -22.44, 1.90, 1.92, 8.11, repro,
2003-12-23,-1.94, -6.67, -28.64, 1.85, 1.83, 8.00, repro,
2003-12-24,-3.61, -6.36, -7.35, 2.18, 2.30, 9.23, repro,
2003-12-25,-3.21, -7.48, -15.34, 2.05, 2.10, 8.68, repro,
2003-12-26,-2.81, -7.98, -17.45, 1.81, 1.79, 7.89, repro,
2003-12-27,-3.44, -5.94, -17.02, 1.98, 2.04, 8.86, repro,
2003-12-28,-1.68, -5.77, -18.45, 1.85, 1.90, 8.12, repro,
2003-12-29,-2.36, -4.76, -21.56, 1.89, 1.85, 8.32, repro,
2003-12-30,-2.25, -6.11, -17.22, 1.82, 1.81, 7.89, repro,
2003-12-31,-1.78, -6.47, -30.78, 1.79, 1.74, 7.70, repro,
2004-01-01,-1.77, -4.88, -18.39, 1.94, 1.91, 8.57, repro,
2004-01-02,-2.32, -3.35, -9.74, 1.86, 1.85, 8.05, repro,
2004-01-03,-2.40, -2.71, -16.76, 1.89, 1.88, 8.27, repro,
2004-01-04,-1.27, -2.85, -19.28, 1.89, 1.88, 8.14, repro,
2004-01-05,-1.49, -2.34, -14.02, 1.92, 1.86, 8.26, repro,
2004-01-06,-2.38, -7.07, -13.32, 2.09, 2.03, 9.17, repro,
2004-01-07,-1.49, -7.71, -22.11, 1.85, 1.84, 7.95, repro,
2004-01-08,-0.87, -8.24, -19.08, 1.84, 1.85, 8.10, repro,
2004-01-09,-3.39, -6.63, -25.57, 1.87, 1.88, 8.11, repro,
2004-01-10,-2.93, -7.37, -23.13, 1.80, 1.78, 7.78, repro,
2004-01-11,-3.10, -7.71, -23.59, 1.90, 1.89, 8.15, repro,
2004-01-12,-4.07, -7.35, -21.81, 2.00, 2.01, 8.67, repro,
2004-01-13,-1.44, -6.31, -17.23, 1.88, 1.97, 8.05, repro,
2004-01-14,-0.15, -5.78, -15.75, 1.92, 2.02, 8.25, repro,
2004-01-15,-2.08, -6.10, -15.47, 1.84, 1.87, 7.97, repro,
2004-01-16,-2.20, -5.39, -15.72, 1.93, 2.03, 8.55, repro,
2004-01-17,-2.97, -5.68, -15.22, 1.88, 1.90, 8.36, repro,
2004-01-18,-3.32, -5.83, -13.28, 1.87, 1.90, 8.19, repro,
2004-01-19,-1.26, -5.93, -16.64, 1.80, 1.82, 7.83, repro,
2004-01-20,-2.35, -7.45, -15.83, 1.89, 1.91, 8.37, repro,
2004-01-21,-1.80, -8.68, -18.77, 1.83, 1.85, 8.08, repro,
2004-01-22,-1.91, -7.43, -20.36, 1.85, 1.93, 8.30, repro,
2004-01-23,-1.71, -5.86, -20.70, 1.84, 1.86, 8.09, repro,
2004-01-24,-3.28, -5.41, -20.09, 1.91, 1.99, 8.16, repro,
2004-01-25,-2.43, -4.13, -12.61, 1.85, 1.88, 8.15, repro,
2004-01-26,-2.29, -8.12, -14.06, 1.84, 1.85, 8.13, repro,
2004-01-27,-2.29, -5.74, -16.20, 1.79, 1.83, 7.95, repro,
2004-01-28,-1.05, -8.11, -17.66, 1.90, 1.97, 8.42, repro,
2004-01-29,-2.59, -9.21, -14.45, 1.88, 1.91, 8.22, repro,
2004-01-30,-2.95, -7.98, -17.22, 1.92, 1.99, 8.43, repro,
2004-01-31,-3.31, -7.21, -21.64, 1.82, 1.84, 8.04, repro,
2004-02-01,-2.57, -6.73, -17.97, 1.87, 1.91, 8.07, repro,
2004-02-02,-2.89, -6.32, -19.85, 1.75, 1.75, 7.63, repro,
2004-02-03,-2.15, -6.59, -20.44, 1.82, 1.81, 7.96, repro,
2004-02-04,-3.67, -8.89, -25.98, 1.85, 1.85, 8.24, repro,
2004-02-05,-1.28, -6.23, -20.65, 2.09, 2.19, 9.40, repro,
2004-02-06,-2.21, -5.41, -23.48, 1.95, 2.03, 8.79, repro,
2004-02-07,-2.53, -8.33, -25.72, 1.83, 1.85, 8.13, repro,
2004-02-08,-2.97, -9.62, -16.54, 1.77, 1.79, 7.72, repro,
2004-02-09,-2.20, -9.81, -23.50, 1.74, 1.75, 7.55, repro,
2004-02-10,-2.29, -8.68, -16.77, 1.78, 1.77, 7.72, repro,
2004-02-11,-1.59, -6.62, -16.20, 1.75, 1.73, 7.61, repro,
2004-02-12,-0.18, -6.88, -23.54, 1.86, 1.86, 8.08, repro,
2004-02-13,-1.96, -7.29, -6.85, 1.83, 1.78, 7.76, repro,
2004-02-14,-3.27, -8.19, -8.64, 1.80, 1.84, 7.83, repro,
2004-02-15,-3.76, -8.57, -11.77, 1.92, 1.83, 8.05, repro,
2004-02-16,-1.91, -9.35, -21.49, 1.84, 1.80, 7.84, repro,
2004-02-17,-2.64, -7.81, -21.88, 1.84, 1.81, 7.89, repro,
2004-02-18,-1.88, -7.52, -17.46, 1.78, 1.74, 7.67, repro,
2004-02-19,-2.65, -6.35, -12.72, 1.77, 1.74, 7.66, repro,
2004-02-20,-2.14, -5.80, -5.08, 1.78, 1.74, 7.66, repro,
2004-02-21,-0.40, -5.83, -9.35, 1.78, 1.76, 7.73, repro,
2004-02-22,-2.24, -4.85, -20.12, 1.83, 1.78, 7.94, repro,
2004-02-23,-3.13, -4.45, -6.54, 1.99, 1.99, 8.71, repro,
2004-02-24,-2.26, -3.29, -12.52, 1.84, 1.77, 8.00, repro,
2004-02-25,-1.31, -6.95, -9.56, 1.87, 1.84, 8.11, repro,
2004-02-26,-2.27, -7.15, -13.50, 1.82, 1.77, 7.89, repro,
2004-02-27,-1.82, -7.46, -10.83, 1.83, 1.78, 7.90, repro,
2004-02-28,-2.27, -7.32, -18.04, 1.88, 1.86, 8.14, repro,
2004-02-29,-2.76, -5.59, -14.29, 1.83, 1.78, 7.97, repro,
2004-03-01,-3.27, -5.15, -14.06, 2.25, 2.28, 10.15, repro,
2004-03-02,-1.36, -2.48, -17.34, 1.82, 1.80, 7.93, repro,
2004-03-03,-0.38, -2.55, -15.21, 1.87, 1.82, 8.11, repro,
2004-03-04,-1.14, -2.36, -8.38, 1.94, 1.96, 8.65, repro,
2004-03-05,-0.18, -0.99, -16.13, 1.85, 1.82, 8.09, repro,
2004-03-06,0.68, -1.59, -17.36, 1.92, 1.85, 8.52, repro,
2004-03-07,-0.41, -2.14, -18.41, 1.83, 1.80, 8.01, repro,
2004-03-08,-0.03, -4.27, -14.52, 1.85, 1.88, 8.35, repro,
2004-03-09,-0.37, -3.69, -9.97, 1.91, 1.86, 8.53, repro,
2004-03-10,-1.26, -5.06, -11.98, 1.83, 1.81, 8.03, repro,
2004-03-11,-1.07, -5.72, -14.76, 1.85, 1.86, 8.27, repro,
2004-03-12,-1.31, -3.79, -18.21, 1.89, 1.92, 8.56, repro,
2004-03-13,-1.91, -3.70, -18.38, 1.86, 1.87, 8.27, repro,
2004-03-14,-1.49, -3.69, -23.21, 1.88, 1.89, 8.33, repro,
2004-03-15,-1.36, -3.28, -23.67, 1.89, 1.90, 8.41, repro,
2004-03-16,-2.36, -3.35, -14.21, 1.84, 1.81, 8.06, repro,
2004-03-17,-0.70, -4.58, -14.48, 2.00, 2.03, 8.94, repro,
2004-03-18,-2.36, -2.36, -16.27, 1.86, 1.81, 8.02, repro,
2004-03-19,-0.39, -2.17, -19.47, 1.92, 1.93, 8.48, repro,
2004-03-20,-0.27, -3.26, -23.93, 1.91, 1.92, 8.46, repro,
2004-03-21,-0.97, -1.41, -22.97, 1.90, 1.91, 8.41, repro,
2004-03-22,-1.13, -3.45, -21.19, 1.83, 1.80, 8.07, repro,
2004-03-23,-0.71, -5.20, -18.68, 1.85, 1.86, 8.31, repro,
2004-03-24,-1.73, -3.12, -18.33, 1.84, 1.85, 8.23, repro,
2004-03-25,0.60, -4.21, -24.53, 1.86, 1.86, 8.26, repro,
2004-03-26,0.13, -2.61, -13.80, 1.85, 1.82, 8.04, repro,
2004-03-27,0.18, -0.80, -17.23, 1.83, 1.76, 7.89, repro,
2004-03-28,0.06, -1.44, -16.07, 1.83, 1.76, 7.92, repro,
2004-03-29,-1.04, -1.20, -11.12, 2.01, 1.89, 8.51, repro,
2004-03-30,1.61, -4.10, -17.46, 1.92, 1.89, 8.20, repro,
2004-03-31,-0.72, -3.05, -8.53, 1.83, 1.81, 7.93, repro,
2004-04-01,-1.82, -3.01, -10.96, 1.87, 1.88, 8.28, repro,
2004-04-02,-2.18, -2.51, -11.60, 1.80, 1.74, 7.83, repro,
2004-04-03,0.24, -2.62, -12.92, 1.82, 1.76, 7.83, repro,
2004-04-04,-0.96, -1.82, -14.06, 1.84, 1.80, 7.96, repro,
2004-04-05,-0.37, -0.86, -12.14, 1.80, 1.76, 7.83, repro,
2004-04-06,-1.44, -1.32, -12.59, 1.82, 1.77, 7.93, repro,
2004-04-07,-0.48, -1.79, -17.41, 1.93, 1.93, 8.53, repro,
2004-04-08,-1.55, -0.71, -8.68, 1.81, 1.76, 7.85, repro,
2004-04-09,-0.70, -1.48, -10.76, 1.80, 1.75, 7.84, repro,
2004-04-10,-0.18, 0.36, -12.37, 1.82, 1.77, 7.91, repro,
2004-04-11,0.19, 1.27, 1.27, 2.16, 2.14, 9.39, repro,
2004-04-12,-1.55, -0.19, -16.35, 1.86, 1.86, 8.25, repro,
2004-04-13,-3.93, -4.12, -9.99, 1.86, 1.80, 8.00, repro,
2004-04-14,-2.38, -4.42, -7.60, 1.86, 1.80, 7.97, repro,
2004-04-15,-1.85, -4.61, -15.48, 1.80, 1.75, 7.80, repro,
2004-04-16,-1.59, -2.86, -15.65, 1.84, 1.80, 8.02, repro,
2004-04-17,-1.47, -2.36, -9.67, 1.92, 1.90, 8.23, repro,
2004-04-18,-1.15, -1.94, -16.25, 1.92, 1.85, 8.19, repro,
2004-04-19,-0.68, -2.44, -14.39, 1.86, 1.79, 8.04, repro,
2004-04-20,-0.50, -2.65, -7.05, 1.88, 1.83, 8.22, repro,
2004-04-21,-1.17, 1.93, -2.39, 1.90, 1.85, 8.19, repro,
2004-04-22,-1.12, 0.63, -5.48, 2.00, 1.97, 8.34, repro,
2004-04-23,1.20, 0.11, -14.31, 1.91, 1.90, 8.17, repro,
2004-04-24,0.04, 1.51, -10.39, 1.85, 1.79, 8.05, repro,
2004-04-25,-0.81, -0.41, -9.62, 1.94, 1.95, 8.47, repro,
2004-04-26,0.18, -1.91, -8.66, 2.02, 2.10, 8.89, repro,
2004-04-27,1.01, -1.96, -9.30, 2.02, 1.93, 8.71, repro,
2004-04-28,-0.07, -0.95, -9.13, 2.01, 2.02, 8.87, repro,
2004-04-29,-0.34, -0.90, -5.88, 1.88, 1.86, 8.29, repro,
2004-04-30,-0.01, 0.34, -5.39, 1.96, 1.91, 8.69, repro,
2004-05-01,-0.65, -0.79, -19.30, 2.20, 2.15, 9.39, repro,
2004-05-02,0.56, -1.83, -22.31, 2.08, 2.02, 8.83, repro,
2004-05-03,-1.11, -2.57, -12.62, 2.01, 1.96, 8.53, repro,
2004-05-04,-0.79, -2.12, -10.17, 2.13, 2.02, 9.10, repro,
2004-05-05,-2.01, -1.60, -3.35, 1.99, 1.89, 8.59, repro,
2004-05-06,-0.58, -2.53, -10.52, 1.92, 1.83, 8.37, repro,
2004-05-07,0.63, -2.18, -10.39, 2.14, 1.96, 9.30, repro,
2004-05-08,0.46, -0.37, -11.45, 2.14, 1.95, 9.34, repro,
2004-05-09,-0.08, 0.93, -23.90, 2.06, 1.94, 8.76, repro,
2004-05-10,0.94, 0.52, -15.49, 1.92, 1.87, 8.37, repro,
2004-05-11,-0.23, 1.55, -7.96, 1.92, 1.88, 8.32, repro,
2004-05-12,1.02, 1.75, -20.38, 2.06, 1.92, 9.00, repro,
2004-05-13,1.77, -0.23, -18.91, 2.08, 1.93, 9.08, repro,
2004-05-14,1.60, 0.60, -8.42, 2.13, 2.10, 8.94, repro,
2004-05-15,1.67, -1.48, -14.99, 1.89, 1.82, 8.11, repro,
2004-05-16,0.79, 0.73, -21.30, 1.80, 1.75, 7.81, repro,
2004-05-17,1.11, 0.64, -14.26, 1.81, 1.77, 7.87, repro,
2004-05-18,2.36, 1.81, -13.16, 2.07, 2.25, 9.53, repro,
2004-05-19,0.72, 0.85, -11.04, 1.83, 1.81, 7.91, repro,
2004-05-20,0.16, 2.61, -13.52, 1.83, 1.81, 7.87, repro,
2004-05-21,1.29, 0.88, -15.04, 1.87, 1.76, 8.03, repro,
2004-05-22,2.03, 1.77, -13.95, 1.89, 1.92, 8.28, repro,
2004-05-23,0.38, 3.44, -0.59, 1.95, 1.87, 8.39, repro,
2004-05-24,0.29, 3.12, -9.50, 1.80, 1.74, 7.73, repro,
2004-05-25,1.34, 3.60, -11.84, 1.85, 1.79, 7.84, repro,
2004-05-26,1.63, 0.99, -9.89, 1.81, 1.76, 7.79, repro,
2004-05-27,0.75, 1.86, 2.29, 1.85, 1.80, 7.91, repro,
2004-05-28,1.00, 2.97, -6.93, 1.86, 1.83, 7.99, repro,
2004-05-29,1.52, 2.96, -9.66, 1.81, 1.76, 7.77, repro,
2004-05-30,0.82, 2.27, -3.60, 1.80, 1.75, 7.74, repro,
2004-05-31,1.10, 3.71, -4.83, 1.84, 1.76, 8.06, repro,
2004-06-01,0.87, 2.57, 0.51, 1.87, 1.81, 8.23, repro,
2004-06-02,0.94, 1.70, -13.93, 2.04, 1.97, 9.02, repro,
2004-06-03,1.22, 1.81, -16.25, 1.95, 1.99, 8.49, repro,
2004-06-04,0.34, 3.43, 5.10, 1.96, 1.85, 8.50, repro,
2004-06-05,-0.58, 3.63, -3.49, 1.91, 1.86, 8.30, repro,
2004-06-06,-0.58, 1.61, -1.42, 1.84, 1.84, 8.03, repro,
2004-06-07,0.53, 4.42, -2.20, 1.80, 1.77, 7.89, repro,
2004-06-08,1.57, 3.44, -6.12, 1.79, 1.76, 7.78, repro,
2004-06-09,2.16, 2.71, -8.14, 1.84, 1.79, 8.01, repro,
2004-06-10,1.60, 4.29, 0.31, 2.13, 2.02, 9.72, repro,